Time,TemperatureF,DewpointF,PressureIn,WindDirection,WindDirectionDegrees,WindSpeedMPH,WindSpeedGustMPH,Humidity,HourlyPrecipIn,Conditions,Clouds,dailyrainin,SoftwareType,DateUTC
2013-01-02 00:00:00,17.8,-1.5,29.91,West,270,0.0,2.0,42,0.00,,,0.01,meteohub,2013-01-02 05:00:00,
2013-01-02 00:01:00,17.8,-1.5,29.90,West,270,0.0,2.0,42,0.00,,,0.01,meteohub,2013-01-02 05:01:00,
2013-01-02 00:02:00,17.8,-1.5,29.90,West,270,0.0,2.0,42,0.00,,,0.01,meteohub,2013-01-02 05:02:00,
2013-01-02 00:07:00,17.1,-1.7,29.90,West,270,0.0,1.0,43,0.00,,,0.00,meteohub,2013-01-02 05:07:00,
2013-01-02 00:11:00,16.9,-1.8,29.90,West,270,0.0,0.0,43,0.00,,,0.00,meteohub,2013-01-02 05:11:00,
2013-01-02 00:16:00,16.3,-2.2,29.91,West,270,0.0,0.0,43,0.00,,,0.00,meteohub,2013-01-02 05:16:00,
2013-01-02 00:21:00,16.2,-1.8,29.91,East,90,1.0,0.0,44,0.00,,,0.00,meteohub,2013-01-02 05:21:00,
2013-01-02 00:26:00,16.0,-1.7,29.90,East,90,0.0,1.0,45,0.00,,,0.00,meteohub,2013-01-02 05:26:00,
2013-01-02 00:31:00,16.0,-1.7,29.92,East,90,0.0,1.0,45,0.00,,,0.00,meteohub,2013-01-02 05:31:00,
2013-01-02 00:36:00,15.8,-1.8,29.91,East,90,0.0,1.0,45,0.00,,,0.00,meteohub,2013-01-02 05:36:00,
2013-01-02 00:41:00,15.8,-1.8,29.91,East,90,0.0,1.0,45,0.00,,,0.00,meteohub,2013-01-02 05:41:00,
2013-01-02 00:46:00,15.8,-1.8,29.91,North,0,1.0,0.0,45,0.00,,,0.00,meteohub,2013-01-02 05:46:00,
2013-01-02 00:51:00,15.6,-1.5,29.91,North,0,0.0,2.0,46,0.00,,,0.00,meteohub,2013-01-02 05:51:00,
2013-01-02 00:57:00,15.4,-1.1,29.91,North,0,0.0,2.0,47,0.00,,,0.00,meteohub,2013-01-02 05:57:00,
2013-01-02 01:02:00,15.3,-0.9,29.91,North,0,0.0,2.0,48,0.00,,,0.00,meteohub,2013-01-02 06:02:00,
2013-01-02 01:07:00,15.1,-1.1,29.91,North,0,0.0,0.0,48,0.00,,,0.00,meteohub,2013-01-02 06:07:00,
2013-01-02 01:12:00,15.1,-1.1,29.91,North,0,0.0,0.0,48,0.00,,,0.00,meteohub,2013-01-02 06:12:00,
2013-01-02 01:17:00,14.9,-0.8,29.91,North,0,0.0,0.0,49,0.00,,,0.00,meteohub,2013-01-02 06:17:00,
2013-01-02 01:22:00,14.9,-1.3,29.91,North,0,0.0,1.0,48,0.00,,,0.00,meteohub,2013-01-02 06:22:00,
2013-01-02 01:27:00,14.7,-1.5,29.91,North,0,0.0,1.0,48,0.00,,,0.00,meteohub,2013-01-02 06:27:00,
2013-01-02 01:32:00,14.5,-1.7,29.91,North,0,0.0,0.0,48,0.00,,,0.00,meteohub,2013-01-02 06:32:00,
2013-01-02 01:37:00,14.4,-1.7,29.92,North,0,0.0,0.0,48,0.00,,,0.00,meteohub,2013-01-02 06:37:00,
2013-01-02 01:42:00,14.5,-1.7,29.92,North,0,0.0,0.0,48,0.00,,,0.00,meteohub,2013-01-02 06:42:00,
2013-01-02 01:47:00,14.5,-1.7,29.92,North,0,0.0,0.0,48,0.00,,,0.00,meteohub,2013-01-02 06:47:00,
2013-01-02 01:52:00,14.5,-1.7,29.93,North,0,0.0,0.0,48,0.00,,,0.00,meteohub,2013-01-02 06:52:00,
2013-01-02 01:57:00,14.5,-2.0,29.93,North,0,0.0,0.0,47,0.00,,,0.00,meteohub,2013-01-02 06:57:00,
2013-01-02 02:02:00,14.4,-2.2,29.93,North,0,0.0,0.0,47,0.00,,,0.00,meteohub,2013-01-02 07:02:00,
2013-01-02 02:07:00,14.4,-2.2,29.94,North,0,0.0,0.0,47,0.00,,,0.00,meteohub,2013-01-02 07:07:00,
2013-01-02 02:12:00,14.4,-2.2,29.94,North,0,0.0,0.0,47,0.00,,,0.00,meteohub,2013-01-02 07:12:00,
2013-01-02 02:17:00,14.5,-2.0,29.94,North,0,0.0,0.0,47,0.00,,,0.00,meteohub,2013-01-02 07:17:00,
2013-01-02 02:22:00,14.5,-2.0,29.94,North,0,0.0,0.0,47,0.00,,,0.00,meteohub,2013-01-02 07:22:00,
2013-01-02 02:27:00,14.7,-1.8,29.94,North,0,0.0,0.0,47,0.00,,,0.00,meteohub,2013-01-02 07:27:00,
2013-01-02 02:32:00,14.7,-2.4,29.94,North,0,0.0,0.0,46,0.00,,,0.00,meteohub,2013-01-02 07:32:00,
2013-01-02 02:37:00,14.7,-2.4,29.93,North,0,0.0,1.0,46,0.00,,,0.00,meteohub,2013-01-02 07:37:00,
2013-01-02 02:42:00,14.7,-2.4,29.94,North,0,0.0,1.0,46,0.00,,,0.00,meteohub,2013-01-02 07:42:00,
2013-01-02 02:47:00,14.7,-2.4,29.93,North,0,0.0,1.0,46,0.00,,,0.00,meteohub,2013-01-02 07:47:00,
2013-01-02 02:52:00,14.7,-2.7,29.94,North,0,2.0,2.0,45,0.00,,,0.00,meteohub,2013-01-02 07:52:00,
2013-01-02 02:57:00,14.7,-2.7,29.93,North,0,2.0,2.0,45,0.00,,,0.00,meteohub,2013-01-02 07:57:00,
2013-01-02 03:02:00,14.7,-2.7,29.93,North,0,0.0,2.0,45,0.00,,,0.00,meteohub,2013-01-02 08:02:00,
2013-01-02 03:07:00,14.7,-2.7,29.94,NE,45,2.0,2.0,45,0.00,,,0.00,meteohub,2013-01-02 08:07:00,
2013-01-02 03:12:00,14.9,-2.6,29.94,North,0,1.0,2.0,45,0.00,,,0.00,meteohub,2013-01-02 08:12:00,
2013-01-02 03:17:00,14.7,-3.3,29.94,North,0,1.0,2.0,44,0.00,,,0.00,meteohub,2013-01-02 08:17:00,
2013-01-02 03:22:00,14.7,-3.3,29.94,North,0,0.0,2.0,44,0.00,,,0.00,meteohub,2013-01-02 08:22:00,
2013-01-02 03:27:00,14.7,-3.3,29.94,NW,315,0.0,1.0,44,0.00,,,0.00,meteohub,2013-01-02 08:27:00,
2013-01-02 03:32:00,14.5,-3.5,29.93,NW,315,0.0,1.0,44,0.00,,,0.00,meteohub,2013-01-02 08:32:00,
2013-01-02 03:37:00,14.4,-3.6,29.93,NW,315,0.0,1.0,44,0.00,,,0.00,meteohub,2013-01-02 08:37:00,
2013-01-02 03:42:00,14.2,-3.8,29.93,NW,315,0.0,0.0,44,0.00,,,0.00,meteohub,2013-01-02 08:42:00,
2013-01-02 03:47:00,14.0,-3.8,29.93,NW,315,0.0,0.0,44,0.00,,,0.00,meteohub,2013-01-02 08:47:00,
2013-01-02 03:52:00,14.0,-3.8,29.93,NW,315,0.0,0.0,44,0.00,,,0.00,meteohub,2013-01-02 08:52:00,
2013-01-02 03:57:00,13.8,-3.6,29.93,NW,315,0.0,0.0,45,0.00,,,0.00,meteohub,2013-01-02 08:57:00,
2013-01-02 04:02:00,13.6,-3.8,29.93,NW,315,0.0,0.0,45,0.00,,,0.00,meteohub,2013-01-02 09:02:00,
2013-01-02 04:07:00,13.5,-4.0,29.92,NW,315,0.0,0.0,45,0.00,,,0.00,meteohub,2013-01-02 09:07:00,
2013-01-02 04:12:00,13.1,-3.8,29.92,NW,315,0.0,0.0,46,0.00,,,0.00,meteohub,2013-01-02 09:12:00,
2013-01-02 04:17:00,13.1,-3.8,29.92,North,0,0.0,0.0,46,0.00,,,0.00,meteohub,2013-01-02 09:17:00,
2013-01-02 04:22:00,13.1,-3.3,29.91,North,0,0.0,0.0,47,0.00,,,0.00,meteohub,2013-01-02 09:22:00,
2013-01-02 04:27:00,13.3,-3.1,29.91,NE,45,0.0,1.0,47,0.00,,,0.00,meteohub,2013-01-02 09:27:00,
2013-01-02 04:32:00,13.3,-3.1,29.92,NE,45,0.0,1.0,47,0.00,,,0.00,meteohub,2013-01-02 09:32:00,
2013-01-02 04:37:00,13.3,-3.1,29.91,NE,45,0.0,1.0,47,0.00,,,0.00,meteohub,2013-01-02 09:37:00,
2013-01-02 04:42:00,13.1,-3.3,29.91,NE,45,0.0,0.0,47,0.00,,,0.00,meteohub,2013-01-02 09:42:00,
2013-01-02 04:47:00,13.1,-2.9,29.91,NE,45,0.0,0.0,48,0.00,,,0.00,meteohub,2013-01-02 09:47:00,
2013-01-02 04:52:00,13.1,-2.9,29.91,NE,45,2.0,0.0,48,0.00,,,0.00,meteohub,2013-01-02 09:52:00,
2013-01-02 04:57:00,13.1,-2.9,29.91,North,0,1.0,2.0,48,0.00,,,0.00,meteohub,2013-01-02 09:57:00,
2013-01-02 05:02:00,13.3,-2.7,29.91,North,0,1.0,2.0,48,0.00,,,0.00,meteohub,2013-01-02 10:02:00,
2013-01-02 05:07:00,13.3,-2.7,29.91,North,0,0.0,2.0,48,0.00,,,0.00,meteohub,2013-01-02 10:07:00,
2013-01-02 05:12:00,13.3,-2.7,29.91,North,0,0.0,1.0,48,0.00,,,0.00,meteohub,2013-01-02 10:12:00,
2013-01-02 05:17:00,13.3,-2.7,29.91,North,0,0.0,1.0,48,0.00,,,0.00,meteohub,2013-01-02 10:17:00,
2013-01-02 05:22:00,13.1,-2.9,29.92,North,0,0.0,1.0,48,0.00,,,0.00,meteohub,2013-01-02 10:22:00,
2013-01-02 05:27:00,12.9,-3.1,29.91,North,0,0.0,1.0,48,0.00,,,0.00,meteohub,2013-01-02 10:27:00,
2013-01-02 05:32:00,12.9,-3.1,29.92,North,0,0.0,1.0,48,0.00,,,0.00,meteohub,2013-01-02 10:32:00,
2013-01-02 05:37:00,12.9,-2.6,29.92,North,0,0.0,0.0,49,0.00,,,0.00,meteohub,2013-01-02 10:37:00,
2013-01-02 05:42:00,12.7,-2.7,29.91,North,0,0.0,0.0,49,0.00,,,0.00,meteohub,2013-01-02 10:42:00,
2013-01-02 05:47:00,12.9,-2.2,29.92,North,0,0.0,0.0,50,0.00,,,0.00,meteohub,2013-01-02 10:47:00,
2013-01-02 05:52:00,12.9,-2.2,29.91,NE,45,0.0,2.0,50,0.00,,,0.00,meteohub,2013-01-02 10:52:00,
2013-01-02 05:57:00,12.9,-2.2,29.91,NNW,338,1.0,2.0,50,0.00,,,0.00,meteohub,2013-01-02 10:57:00,
2013-01-02 06:02:00,13.3,-1.8,29.92,North,0,1.0,2.0,50,0.00,,,0.00,meteohub,2013-01-02 11:02:00,
2013-01-02 06:07:00,13.3,-1.5,29.92,North,0,1.0,2.0,51,0.00,,,0.00,meteohub,2013-01-02 11:07:00,
2013-01-02 06:12:00,13.3,-1.5,29.91,NE,45,2.0,2.0,51,0.00,,,0.00,meteohub,2013-01-02 11:12:00,
2013-01-02 06:17:00,13.3,-1.5,29.92,North,0,0.0,2.0,51,0.00,,,0.00,meteohub,2013-01-02 11:17:00,
2013-01-02 06:22:00,13.3,-1.5,29.91,North,0,0.0,2.0,51,0.00,,,0.00,meteohub,2013-01-02 11:22:00,
2013-01-02 06:27:00,13.1,-1.7,29.92,North,0,0.0,2.0,51,0.00,,,0.00,meteohub,2013-01-02 11:27:00,
2013-01-02 06:32:00,13.1,-1.7,29.92,North,0,0.0,0.0,51,0.00,,,0.00,meteohub,2013-01-02 11:32:00,
2013-01-02 06:37:00,12.9,-1.8,29.92,North,0,0.0,0.0,51,0.00,,,0.00,meteohub,2013-01-02 11:37:00,
2013-01-02 06:42:00,12.7,-2.0,29.92,North,0,0.0,0.0,51,0.00,,,0.00,meteohub,2013-01-02 11:42:00,
2013-01-02 06:47:00,12.7,-2.0,29.93,North,0,0.0,0.0,51,0.00,,,0.00,meteohub,2013-01-02 11:47:00,
2013-01-02 06:52:00,12.6,-2.2,29.91,North,0,0.0,0.0,51,0.00,,,0.00,meteohub,2013-01-02 11:52:00,
2013-01-02 06:57:00,12.6,-2.2,29.91,North,0,0.0,0.0,51,0.00,,,0.00,meteohub,2013-01-02 11:57:00,
2013-01-02 07:02:00,12.6,-1.7,29.91,North,0,0.0,0.0,52,0.00,,,0.00,meteohub,2013-01-02 12:02:00,
2013-01-02 07:07:00,12.4,-1.8,29.92,North,0,0.0,0.0,52,0.00,,,0.00,meteohub,2013-01-02 12:07:00,
2013-01-02 07:12:00,12.4,-1.8,29.91,North,0,0.0,0.0,52,0.00,,,0.00,meteohub,2013-01-02 12:12:00,
2013-01-02 07:17:00,12.4,-1.8,29.91,North,0,0.0,0.0,52,0.00,,,0.00,meteohub,2013-01-02 12:17:00,
2013-01-02 07:22:00,12.4,-1.8,29.92,North,0,0.0,0.0,52,0.00,,,0.00,meteohub,2013-01-02 12:22:00,
2013-01-02 07:27:00,12.4,-1.5,29.91,North,0,0.0,0.0,53,0.00,,,0.00,meteohub,2013-01-02 12:27:00,
2013-01-02 07:32:00,12.4,-1.5,29.92,North,0,0.0,0.0,53,0.00,,,0.00,meteohub,2013-01-02 12:32:00,
2013-01-02 07:37:00,12.6,-1.3,29.91,North,0,0.0,0.0,53,0.00,,,0.00,meteohub,2013-01-02 12:37:00,
2013-01-02 07:42:00,12.7,-0.8,29.91,North,0,0.0,0.0,54,0.00,,,0.00,meteohub,2013-01-02 12:42:00,
2013-01-02 07:47:00,12.7,-0.8,29.91,North,0,0.0,0.0,54,0.00,,,0.00,meteohub,2013-01-02 12:47:00,
2013-01-02 07:52:00,13.1,-0.4,29.91,North,0,0.0,0.0,54,0.00,,,0.00,meteohub,2013-01-02 12:52:00,
2013-01-02 07:57:00,13.6,0.1,29.91,North,0,0.0,0.0,54,0.00,,,0.00,meteohub,2013-01-02 12:57:00,
2013-01-02 08:02:00,14.2,0.1,29.90,North,0,0.0,1.0,53,0.00,,,0.00,meteohub,2013-01-02 13:02:00,
2013-01-02 08:07:00,14.5,0.5,29.91,North,0,0.0,1.0,53,0.00,,,0.00,meteohub,2013-01-02 13:07:00,
2013-01-02 08:12:00,14.7,0.7,29.91,North,0,0.0,1.0,53,0.00,,,0.00,meteohub,2013-01-02 13:12:00,
2013-01-02 08:17:00,15.1,1.0,29.91,NE,45,0.0,0.0,53,0.00,,,0.00,meteohub,2013-01-02 13:17:00,
2013-01-02 08:22:00,15.6,1.6,29.91,North,0,1.0,1.0,53,0.00,,,0.00,meteohub,2013-01-02 13:22:00,
2013-01-02 08:27:00,16.9,2.3,29.91,East,90,1.0,1.0,52,0.00,,,0.00,meteohub,2013-01-02 13:27:00,
2013-01-02 08:32:00,17.8,2.7,29.91,East,90,0.0,2.0,51,0.00,,,0.00,meteohub,2013-01-02 13:32:00,
2013-01-02 08:37:00,18.3,2.8,29.91,South,180,1.0,2.0,50,0.00,,,0.00,meteohub,2013-01-02 13:37:00,
2013-01-02 08:42:00,18.9,2.8,29.91,NE,45,2.0,2.0,49,0.00,,,0.00,meteohub,2013-01-02 13:42:00,
2013-01-02 08:47:00,19.6,4.8,29.90,SE,135,2.0,2.0,52,0.00,,,0.00,meteohub,2013-01-02 13:47:00,
2013-01-02 08:52:00,20.3,5.0,29.91,North,0,1.0,4.0,51,0.00,,,0.00,meteohub,2013-01-02 13:52:00,
2013-01-02 08:57:00,21.0,5.4,29.91,WNW,293,1.0,4.0,50,0.00,,,0.00,meteohub,2013-01-02 13:57:00,
2013-01-02 09:02:00,21.4,4.8,29.91,NW,315,0.0,4.0,48,0.00,,,0.00,meteohub,2013-01-02 14:02:00,
2013-01-02 09:07:00,23.5,6.3,29.91,East,90,1.0,4.0,47,0.00,,,0.00,meteohub,2013-01-02 14:07:00,
2013-01-02 09:12:00,24.8,5.9,29.91,SE,135,0.0,2.0,44,0.00,,,0.00,meteohub,2013-01-02 14:12:00,
2013-01-02 09:17:00,26.2,6.8,29.91,North,0,0.0,2.0,43,0.00,,,0.00,meteohub,2013-01-02 14:17:00,
2013-01-02 09:22:00,28.8,9.7,29.91,South,180,0.0,2.0,44,0.00,,,0.00,meteohub,2013-01-02 14:22:00,
2013-01-02 09:27:00,30.2,9.3,29.91,West,270,6.0,6.0,41,0.00,,,0.00,meteohub,2013-01-02 14:27:00,
2013-01-02 09:32:00,30.6,7.9,29.91,West,270,2.0,6.0,38,0.00,,,0.00,meteohub,2013-01-02 14:32:00,
2013-01-02 09:37:00,30.0,7.5,29.92,North,0,2.0,6.0,38,0.00,,,0.00,meteohub,2013-01-02 14:37:00,
2013-01-02 09:42:00,30.2,6.4,29.91,NE,45,2.0,6.0,36,0.00,,,0.00,meteohub,2013-01-02 14:42:00,
2013-01-02 09:47:00,30.6,6.8,29.92,NE,45,2.0,3.0,36,0.00,,,0.00,meteohub,2013-01-02 14:47:00,
2013-01-02 09:52:00,31.3,7.3,29.91,North,0,3.0,3.0,36,0.00,,,0.00,meteohub,2013-01-02 14:52:00,
2013-01-02 09:57:00,30.6,6.1,29.92,NE,45,2.0,4.0,35,0.00,,,0.00,meteohub,2013-01-02 14:57:00,
2013-01-02 10:02:00,29.8,6.8,29.92,North,0,2.0,4.0,37,0.00,,,0.00,meteohub,2013-01-02 15:02:00,
2013-01-02 10:07:00,28.9,5.9,29.92,NE,45,1.0,4.0,37,0.00,,,0.00,meteohub,2013-01-02 15:07:00,
2013-01-02 10:12:00,28.0,2.7,29.92,NW,315,3.0,4.0,33,0.00,,,0.00,meteohub,2013-01-02 15:12:00,
2013-01-02 10:17:00,27.5,3.4,29.91,West,270,2.0,4.0,35,0.00,,,0.00,meteohub,2013-01-02 15:17:00,
2013-01-02 10:22:00,27.9,4.3,29.92,NE,45,4.0,4.0,36,0.00,,,0.00,meteohub,2013-01-02 15:22:00,
2013-01-02 10:27:00,29.1,9.0,29.92,NW,315,2.0,4.0,42,0.00,,,0.00,meteohub,2013-01-02 15:27:00,
2013-01-02 10:32:00,30.7,9.9,29.92,NE,45,2.0,4.0,41,0.00,,,0.00,meteohub,2013-01-02 15:32:00,
2013-01-02 10:37:00,32.4,9.5,29.91,NE,45,2.0,4.0,38,0.00,,,0.00,meteohub,2013-01-02 15:37:00,
2013-01-02 10:42:00,32.9,9.5,29.91,North,0,2.0,4.0,37,0.00,,,0.00,meteohub,2013-01-02 15:42:00,
2013-01-02 10:47:00,32.2,7.0,29.91,NW,315,2.0,2.0,34,0.00,,,0.00,meteohub,2013-01-02 15:47:00,
2013-01-02 10:52:00,32.2,7.5,29.91,NW,315,2.0,4.0,35,0.00,,,0.00,meteohub,2013-01-02 15:52:00,
2013-01-02 10:57:00,33.1,9.0,29.91,East,90,2.0,4.0,36,0.00,,,0.00,meteohub,2013-01-02 15:57:00,
2013-01-02 11:02:00,32.9,8.2,29.90,East,90,2.0,4.0,35,0.00,,,0.00,meteohub,2013-01-02 16:02:00,
2013-01-02 11:07:00,33.3,8.6,29.90,West,270,3.0,5.0,35,0.00,,,0.00,meteohub,2013-01-02 16:07:00,
2013-01-02 11:12:00,33.4,9.3,29.90,NE,45,1.0,5.0,36,0.00,,,0.00,meteohub,2013-01-02 16:12:00,
2013-01-02 11:17:00,34.5,9.7,29.90,West,270,4.0,4.0,35,0.00,,,0.00,meteohub,2013-01-02 16:17:00,
2013-01-02 11:22:00,35.1,9.5,29.90,NW,315,3.0,4.0,34,0.00,,,0.00,meteohub,2013-01-02 16:22:00,
2013-01-02 11:27:00,35.8,10.2,29.89,NE,45,3.0,4.0,34,0.00,,,0.00,meteohub,2013-01-02 16:27:00,
2013-01-02 11:32:00,36.0,9.0,29.89,North,0,3.0,4.0,32,0.00,,,0.00,meteohub,2013-01-02 16:32:00,
2013-01-02 11:37:00,35.6,8.6,29.89,West,270,2.0,7.0,32,0.00,,,0.00,meteohub,2013-01-02 16:37:00,
2013-01-02 11:42:00,36.3,9.3,29.89,East,90,4.0,7.0,32,0.00,,,0.00,meteohub,2013-01-02 16:42:00,
2013-01-02 11:47:00,35.6,7.9,29.88,East,90,2.0,7.0,31,0.00,,,0.00,meteohub,2013-01-02 16:47:00,
2013-01-02 11:52:00,34.0,7.9,29.87,NE,45,2.0,7.0,33,0.00,,,0.00,meteohub,2013-01-02 16:52:00,
2013-01-02 11:57:00,33.6,9.0,29.88,West,270,0.0,7.0,35,0.00,,,0.00,meteohub,2013-01-02 16:57:00,
2013-01-02 12:02:00,33.8,9.0,29.87,North,0,2.0,5.0,35,0.00,,,0.00,meteohub,2013-01-02 17:02:00,
2013-01-02 12:07:00,33.4,9.3,29.88,SE,135,2.0,4.0,36,0.00,,,0.00,meteohub,2013-01-02 17:07:00,
2013-01-02 12:12:00,33.8,9.0,29.88,North,0,3.0,3.0,35,0.00,,,0.00,meteohub,2013-01-02 17:12:00,
2013-01-02 12:17:00,34.5,10.2,29.88,SE,135,2.0,3.0,36,0.00,,,0.00,meteohub,2013-01-02 17:17:00,
2013-01-02 12:22:00,37.4,14.2,29.87,East,90,2.0,3.0,38,0.00,,,0.00,meteohub,2013-01-02 17:22:00,
2013-01-02 12:27:00,39.7,14.4,29.88,NE,45,2.0,4.0,35,0.00,,,0.00,meteohub,2013-01-02 17:27:00,
2013-01-02 12:32:00,41.2,13.5,29.87,NE,45,2.0,4.0,32,0.00,,,0.00,meteohub,2013-01-02 17:32:00,
2013-01-02 12:37:00,38.5,11.1,29.88,ENE,68,2.0,4.0,32,0.00,,,0.00,meteohub,2013-01-02 17:37:00,
2013-01-02 12:42:00,36.3,6.3,29.88,NW,315,2.0,4.0,28,0.00,,,0.00,meteohub,2013-01-02 17:42:00,
2013-01-02 12:47:00,36.0,7.5,29.88,East,90,3.0,4.0,30,0.00,,,0.00,meteohub,2013-01-02 17:47:00,
2013-01-02 12:52:00,35.4,7.7,29.88,North,0,2.0,4.0,31,0.00,,,0.00,meteohub,2013-01-02 17:52:00,
2013-01-02 12:57:00,36.3,8.6,29.88,North,0,4.0,4.0,31,0.00,,,0.00,meteohub,2013-01-02 17:57:00,
2013-01-02 13:02:00,36.0,7.5,29.88,NW,315,4.0,4.0,30,0.00,,,0.00,meteohub,2013-01-02 18:02:00,
2013-01-02 13:07:00,33.6,7.0,29.88,NE,45,4.0,4.0,32,0.00,,,0.00,meteohub,2013-01-02 18:07:00,
2013-01-02 13:12:00,33.4,8.1,29.88,North,0,3.0,6.0,34,0.00,,,0.00,meteohub,2013-01-02 18:12:00,
2013-01-02 13:17:00,33.3,9.1,29.88,NW,315,2.0,6.0,36,0.00,,,0.00,meteohub,2013-01-02 18:17:00,
2013-01-02 13:22:00,32.7,8.8,29.88,NE,45,2.0,4.0,36,0.00,,,0.00,meteohub,2013-01-02 18:22:00,
2013-01-02 13:27:00,32.0,8.6,29.88,East,90,2.0,4.0,37,0.00,,,0.00,meteohub,2013-01-02 18:27:00,
2013-01-02 13:32:00,31.6,9.0,29.88,NW,315,6.0,6.0,38,0.00,,,0.00,meteohub,2013-01-02 18:32:00,
2013-01-02 13:37:00,32.0,9.9,29.88,NW,315,6.0,6.0,39,0.00,,,0.00,meteohub,2013-01-02 18:37:00,
2013-01-02 13:42:00,33.3,11.5,29.88,West,270,2.0,6.0,40,0.00,,,0.00,meteohub,2013-01-02 18:42:00,
2013-01-02 13:47:00,33.6,10.0,29.88,NE,45,2.0,6.0,37,0.00,,,0.00,meteohub,2013-01-02 18:47:00,
2013-01-02 13:52:00,33.4,10.0,29.88,NE,45,4.0,6.0,37,0.00,,,0.00,meteohub,2013-01-02 18:52:00,
2013-01-02 13:57:00,33.1,9.7,29.89,NW,315,1.0,5.0,37,0.00,,,0.00,meteohub,2013-01-02 18:57:00,
2013-01-02 14:02:00,33.4,10.6,29.88,NW,315,3.0,5.0,38,0.00,,,0.00,meteohub,2013-01-02 19:02:00,
2013-01-02 14:07:00,32.9,9.5,29.88,North,0,3.0,5.0,37,0.00,,,0.00,meteohub,2013-01-02 19:07:00,
2013-01-02 14:12:00,32.0,8.6,29.88,East,90,4.0,4.0,37,0.00,,,0.00,meteohub,2013-01-02 19:12:00,
2013-01-02 14:17:00,32.7,11.1,29.89,East,90,1.0,5.0,40,0.00,,,0.00,meteohub,2013-01-02 19:17:00,
2013-01-02 14:22:00,33.1,10.2,29.88,NW,315,2.0,5.0,38,0.00,,,0.00,meteohub,2013-01-02 19:22:00,
2013-01-02 14:27:00,31.6,9.5,29.89,NE,45,2.0,5.0,39,0.00,,,0.00,meteohub,2013-01-02 19:27:00,
2013-01-02 14:32:00,30.9,10.0,29.89,North,0,2.0,4.0,41,0.00,,,0.00,meteohub,2013-01-02 19:32:00,
2013-01-02 14:37:00,30.4,9.5,29.90,SE,135,2.0,4.0,41,0.00,,,0.00,meteohub,2013-01-02 19:37:00,
2013-01-02 14:42:00,30.2,9.3,29.90,NE,45,2.0,4.0,41,0.00,,,0.00,meteohub,2013-01-02 19:42:00,
2013-01-02 14:47:00,29.8,9.5,29.90,SW,225,2.0,5.0,42,0.00,,,0.00,meteohub,2013-01-02 19:47:00,
2013-01-02 14:52:00,29.8,9.5,29.91,South,180,2.0,5.0,42,0.00,,,0.00,meteohub,2013-01-02 19:52:00,
2013-01-02 14:57:00,29.7,9.9,29.91,East,90,2.0,5.0,43,0.00,,,0.00,meteohub,2013-01-02 19:57:00,
2013-01-02 15:02:00,29.3,9.5,29.91,NE,45,3.0,5.0,43,0.00,,,0.00,meteohub,2013-01-02 20:02:00,
2013-01-02 15:07:00,28.9,9.3,29.92,NW,315,3.0,7.0,43,0.00,,,0.00,meteohub,2013-01-02 20:07:00,
2013-01-02 15:12:00,28.8,9.1,29.92,West,270,2.0,7.0,43,0.00,,,0.00,meteohub,2013-01-02 20:12:00,
2013-01-02 15:17:00,28.8,9.1,29.93,North,0,1.0,7.0,43,0.00,,,0.00,meteohub,2013-01-02 20:17:00,
2013-01-02 15:22:00,28.8,9.1,29.93,West,270,2.0,5.0,43,0.00,,,0.00,meteohub,2013-01-02 20:22:00,
2013-01-02 15:27:00,28.4,8.8,29.94,SE,135,2.0,4.0,43,0.00,,,0.00,meteohub,2013-01-02 20:27:00,
2013-01-02 15:32:00,28.0,6.3,29.94,NW,315,4.0,4.0,39,0.00,,,0.00,meteohub,2013-01-02 20:32:00,
2013-01-02 15:37:00,27.5,5.7,29.93,North,0,2.0,4.0,39,0.00,,,0.00,meteohub,2013-01-02 20:37:00,
2013-01-02 15:42:00,27.1,5.5,29.94,South,180,2.0,4.0,39,0.00,,,0.00,meteohub,2013-01-02 20:42:00,
2013-01-02 15:47:00,27.0,5.4,29.94,NE,45,1.0,4.0,39,0.00,,,0.00,meteohub,2013-01-02 20:47:00,
2013-01-02 15:52:00,26.6,5.5,29.95,NE,45,2.0,4.0,40,0.00,,,0.00,meteohub,2013-01-02 20:52:00,
2013-01-02 15:57:00,26.6,5.5,29.95,NE,45,1.0,3.0,40,0.00,,,0.00,meteohub,2013-01-02 20:57:00,
2013-01-02 16:02:00,26.2,5.7,29.95,NE,45,2.0,3.0,41,0.00,,,0.00,meteohub,2013-01-02 21:02:00,
2013-01-02 16:07:00,26.1,5.5,29.95,NE,45,1.0,4.0,41,0.00,,,0.00,meteohub,2013-01-02 21:07:00,
2013-01-02 16:12:00,25.7,5.2,29.95,East,90,1.0,4.0,41,0.00,,,0.00,meteohub,2013-01-02 21:12:00,
2013-01-02 16:17:00,25.5,5.5,29.95,North,0,1.0,4.0,42,0.00,,,0.00,meteohub,2013-01-02 21:17:00,
2013-01-02 16:22:00,25.2,5.4,29.96,WNW,293,1.0,2.0,42,0.00,,,0.00,meteohub,2013-01-02 21:22:00,
2013-01-02 16:27:00,24.8,5.0,29.96,North,0,0.0,2.0,42,0.00,,,0.00,meteohub,2013-01-02 21:27:00,
2013-01-02 16:32:00,24.4,5.7,29.97,NW,315,1.0,2.0,44,0.00,,,0.00,meteohub,2013-01-02 21:32:00,
2013-01-02 16:37:00,24.3,5.5,29.96,NW,315,1.0,2.0,44,0.00,,,0.00,meteohub,2013-01-02 21:37:00,
2013-01-02 16:42:00,23.9,5.7,29.97,North,0,1.0,2.0,45,0.00,,,0.00,meteohub,2013-01-02 21:42:00,
2013-01-02 16:47:00,23.9,5.7,29.97,NE,45,0.0,2.0,45,0.00,,,0.00,meteohub,2013-01-02 21:47:00,
2013-01-02 16:52:00,23.7,5.9,29.97,NW,315,2.0,2.0,46,0.00,,,0.00,meteohub,2013-01-02 21:52:00,
2013-01-02 16:57:00,23.5,6.3,29.97,East,90,0.0,2.0,47,0.00,,,0.00,meteohub,2013-01-02 21:57:00,
2013-01-02 17:02:00,23.2,6.4,29.98,NE,45,2.0,2.0,48,0.00,,,0.00,meteohub,2013-01-02 22:02:00,
2013-01-02 17:07:00,23.2,7.3,29.98,SE,135,1.0,2.0,50,0.00,,,0.00,meteohub,2013-01-02 22:07:00,
2013-01-02 17:12:00,23.2,7.7,29.99,East,90,1.0,2.0,51,0.00,,,0.00,meteohub,2013-01-02 22:12:00,
2013-01-02 17:17:00,23.2,7.7,29.99,NE,45,0.0,2.0,51,0.00,,,0.00,meteohub,2013-01-02 22:17:00,
2013-01-02 17:22:00,22.8,8.2,29.99,West,270,0.0,2.0,53,0.00,,,0.00,meteohub,2013-01-02 22:22:00,
2013-01-02 17:27:00,22.6,8.4,29.99,North,0,0.0,2.0,54,0.00,,,0.00,meteohub,2013-01-02 22:27:00,
2013-01-02 17:32:00,22.5,8.2,29.98,North,0,0.0,2.0,54,0.00,,,0.00,meteohub,2013-01-02 22:32:00,
2013-01-02 17:37:00,22.3,8.2,29.99,North,0,0.0,1.0,54,0.00,,,0.00,meteohub,2013-01-02 22:37:00,
2013-01-02 17:42:00,21.9,7.3,29.99,NW,315,0.0,1.0,53,0.00,,,0.00,meteohub,2013-01-02 22:42:00,
2013-01-02 17:47:00,21.6,7.5,29.99,West,270,0.0,0.0,54,0.00,,,0.00,meteohub,2013-01-02 22:47:00,
2013-01-02 17:52:00,21.4,7.3,30.00,WNW,293,0.0,0.0,54,0.00,,,0.00,meteohub,2013-01-02 22:52:00,
2013-01-02 17:57:00,21.2,7.2,30.00,NW,315,0.0,0.0,54,0.00,,,0.00,meteohub,2013-01-02 22:57:00,
2013-01-02 18:02:00,21.4,7.3,30.00,North,0,1.0,1.0,54,0.00,,,0.00,meteohub,2013-01-02 23:02:00,
2013-01-02 18:07:00,21.4,7.0,30.00,North,0,0.0,1.0,53,0.00,,,0.00,meteohub,2013-01-02 23:07:00,
2013-01-02 18:12:00,21.4,7.0,30.00,North,0,0.0,1.0,53,0.00,,,0.00,meteohub,2013-01-02 23:12:00,
2013-01-02 18:17:00,21.0,7.0,30.01,North,0,0.0,2.0,54,0.00,,,0.00,meteohub,2013-01-02 23:17:00,
2013-01-02 18:22:00,20.8,6.4,30.01,West,270,0.0,2.0,53,0.00,,,0.00,meteohub,2013-01-02 23:22:00,
2013-01-02 18:27:00,20.8,6.4,30.01,East,90,1.0,1.0,53,0.00,,,0.00,meteohub,2013-01-02 23:27:00,
2013-01-02 18:32:00,20.8,5.9,30.00,North,0,0.0,1.0,52,0.00,,,0.00,meteohub,2013-01-02 23:32:00,
2013-01-02 18:37:00,20.7,5.9,30.01,NW,315,0.0,1.0,52,0.00,,,0.00,meteohub,2013-01-02 23:37:00,
2013-01-02 18:42:00,20.5,5.7,30.01,NW,315,0.0,2.0,52,0.00,,,0.00,meteohub,2013-01-02 23:42:00,
2013-01-02 18:47:00,20.3,5.5,30.02,West,270,0.0,2.0,52,0.00,,,0.00,meteohub,2013-01-02 23:47:00,
2013-01-02 18:52:00,20.1,5.4,30.01,NNW,338,0.0,2.0,52,0.00,,,0.00,meteohub,2013-01-02 23:52:00,
2013-01-02 18:57:00,19.9,4.6,30.02,NNW,338,0.0,1.0,51,0.00,,,0.00,meteohub,2013-01-02 23:57:00,
2013-01-02 19:02:00,19.8,4.6,30.02,East,90,3.0,0.0,51,0.00,,,0.00,meteohub,2013-01-03 00:02:00,
2013-01-02 19:07:00,19.8,4.6,30.02,NW,315,2.0,3.0,51,0.00,,,0.00,meteohub,2013-01-03 00:07:00,
2013-01-02 19:12:00,19.9,4.3,30.03,North,0,1.0,3.0,50,0.00,,,0.00,meteohub,2013-01-03 00:12:00,
2013-01-02 19:17:00,19.9,3.9,30.03,NW,315,0.0,3.0,49,0.00,,,0.00,meteohub,2013-01-03 00:17:00,
2013-01-02 19:22:00,19.6,3.6,30.03,NW,315,1.0,3.0,49,0.00,,,0.00,meteohub,2013-01-03 00:22:00,
2013-01-02 19:27:00,19.6,3.6,30.03,North,0,0.0,2.0,49,0.00,,,0.00,meteohub,2013-01-03 00:27:00,
2013-01-02 19:32:00,19.4,2.8,30.03,NE,45,1.0,2.0,48,0.00,,,0.00,meteohub,2013-01-03 00:32:00,
2013-01-02 19:33:00,19.4,2.8,30.03,NE,45,1.0,2.0,48,0.00,,,0.00,meteohub,2013-01-03 00:33:00,
2013-01-02 19:37:00,19.2,0.9,30.02,North,0,1.0,2.0,44,0.00,,,0.00,meteohub,2013-01-03 00:37:00,
2013-01-02 19:47:00,19.2,0.3,30.02,SE,135,2.0,3.0,43,0.00,,,0.00,meteohub,2013-01-03 00:47:00,
2013-01-02 19:52:00,19.0,0.1,30.03,North,0,2.0,3.0,43,0.00,,,0.00,meteohub,2013-01-03 00:52:00,
2013-01-02 19:57:00,19.0,0.1,30.03,NW,315,1.0,3.0,43,0.00,,,0.00,meteohub,2013-01-03 00:57:00,
2013-01-02 20:02:00,18.7,0.0,30.04,NE,45,0.0,3.0,43,0.00,,,0.00,meteohub,2013-01-03 01:02:00,
2013-01-02 20:07:00,18.5,-0.8,30.03,East,90,1.0,2.0,42,0.00,,,0.00,meteohub,2013-01-03 01:07:00,
2013-01-02 20:12:00,18.1,-1.1,30.03,North,0,1.0,2.0,42,0.00,,,0.00,meteohub,2013-01-03 01:12:00,
2013-01-02 20:17:00,18.1,-1.1,30.04,NW,315,1.0,2.0,42,0.00,,,0.00,meteohub,2013-01-03 01:17:00,
2013-01-02 20:22:00,17.8,-1.5,30.04,West,270,1.0,2.0,42,0.00,,,0.00,meteohub,2013-01-03 01:22:00,
2013-01-02 20:27:00,17.8,-1.5,30.03,North,0,0.0,1.0,42,0.00,,,0.00,meteohub,2013-01-03 01:27:00,
2013-01-02 20:32:00,17.8,-1.5,30.03,North,0,2.0,2.0,42,0.00,,,0.00,meteohub,2013-01-03 01:32:00,
2013-01-02 20:37:00,17.8,-1.5,30.03,East,90,3.0,3.0,42,0.00,,,0.00,meteohub,2013-01-03 01:37:00,
2013-01-02 20:42:00,17.6,-2.0,30.04,NNW,338,1.0,3.0,41,0.00,,,0.00,meteohub,2013-01-03 01:42:00,
2013-01-02 20:47:00,17.6,-2.0,30.04,NW,315,1.0,3.0,41,0.00,,,0.00,meteohub,2013-01-03 01:47:00,
2013-01-02 20:52:00,17.4,-1.8,30.04,East,90,3.0,3.0,42,0.00,,,0.00,meteohub,2013-01-03 01:52:00,
2013-01-02 20:57:00,17.2,-2.4,30.04,East,90,1.0,3.0,41,0.00,,,0.00,meteohub,2013-01-03 01:57:00,
2013-01-02 21:02:00,17.1,-2.6,30.04,North,0,2.0,3.0,41,0.00,,,0.00,meteohub,2013-01-03 02:02:00,
2013-01-02 21:08:00,17.1,-2.6,30.04,NE,45,2.0,3.0,41,0.00,,,0.00,meteohub,2013-01-03 02:08:00,
2013-01-02 21:13:00,17.1,-2.6,30.05,NNW,338,2.0,3.0,41,0.00,,,0.00,meteohub,2013-01-03 02:13:00,
2013-01-02 21:18:00,16.7,-2.9,30.05,South,180,2.0,4.0,41,0.00,,,0.00,meteohub,2013-01-03 02:18:00,
2013-01-02 21:23:00,16.5,-2.6,30.06,NNW,338,3.0,4.0,42,0.00,,,0.00,meteohub,2013-01-03 02:23:00,
2013-01-02 21:28:00,16.5,-2.6,30.06,NE,45,0.0,3.0,42,0.00,,,0.00,meteohub,2013-01-03 02:28:00,
2013-01-02 21:33:00,16.3,-2.7,30.06,WNW,293,1.0,3.0,42,0.00,,,0.00,meteohub,2013-01-03 02:33:00,
2013-01-02 21:38:00,16.0,-3.1,30.06,West,270,2.0,3.0,42,0.00,,,0.00,meteohub,2013-01-03 02:38:00,
2013-01-02 21:43:00,16.0,-3.1,30.06,North,0,2.0,2.0,42,0.00,,,0.00,meteohub,2013-01-03 02:43:00,
2013-01-02 21:48:00,15.8,-2.7,30.05,East,90,0.0,2.0,43,0.00,,,0.00,meteohub,2013-01-03 02:48:00,
2013-01-02 21:53:00,15.8,-2.7,30.06,NE,45,1.0,2.0,43,0.00,,,0.00,meteohub,2013-01-03 02:53:00,
2013-01-02 21:58:00,15.6,-2.4,30.05,SSE,158,0.0,2.0,44,0.00,,,0.00,meteohub,2013-01-03 02:58:00,
2013-01-02 22:03:00,15.4,-2.6,30.06,North,0,0.0,2.0,44,0.00,,,0.00,meteohub,2013-01-03 03:03:00,
2013-01-02 22:09:00,15.3,-2.7,30.06,SSE,158,1.0,1.0,44,0.00,,,0.00,meteohub,2013-01-03 03:09:00,
2013-01-02 22:14:00,15.3,-2.7,30.06,WNW,293,0.0,2.0,44,0.00,,,0.00,meteohub,2013-01-03 03:14:00,
2013-01-02 22:19:00,15.3,-2.7,30.06,NNE,23,0.0,4.0,44,0.00,,,0.00,meteohub,2013-01-03 03:19:00,
2013-01-02 22:24:00,15.1,-2.9,30.07,East,90,0.0,4.0,44,0.00,,,0.00,meteohub,2013-01-03 03:24:00,
2013-01-02 22:29:00,14.7,-3.3,30.06,NE,45,1.0,4.0,44,0.00,,,0.00,meteohub,2013-01-03 03:29:00,
2013-01-02 22:37:00,14.5,-3.5,30.07,NE,45,0.0,1.0,44,0.00,,,0.00,meteohub,2013-01-03 03:37:00,
2013-01-02 22:41:00,14.4,-3.6,30.06,East,90,2.0,2.0,44,0.00,,,0.00,meteohub,2013-01-03 03:41:00,
2013-01-02 22:42:00,14.4,-3.6,30.06,East,90,2.0,2.0,44,0.00,,,0.00,meteohub,2013-01-03 03:42:00,
2013-01-02 22:52:00,14.2,-3.8,30.07,SE,135,2.0,5.0,44,0.00,,,0.00,meteohub,2013-01-03 03:52:00,
2013-01-02 22:57:00,14.0,-3.8,30.07,NNE,23,0.0,5.0,44,0.00,,,0.00,meteohub,2013-01-03 03:57:00,
2013-01-02 23:02:00,13.6,-3.8,30.07,North,0,1.0,5.0,45,0.00,,,0.00,meteohub,2013-01-03 04:02:00,
2013-01-02 23:07:00,13.5,-4.0,30.07,SE,135,2.0,3.0,45,0.00,,,0.00,meteohub,2013-01-03 04:07:00,
2013-01-02 23:12:00,13.3,-4.2,30.07,NE,45,0.0,3.0,45,0.00,,,0.00,meteohub,2013-01-03 04:12:00,
2013-01-02 23:17:00,12.9,-4.4,30.07,NE,45,2.0,3.0,45,0.00,,,0.00,meteohub,2013-01-03 04:17:00,
2013-01-02 23:22:00,12.7,-4.5,30.07,NE,45,1.0,4.0,45,0.00,,,0.00,meteohub,2013-01-03 04:22:00,
2013-01-02 23:27:00,12.6,-4.7,30.08,East,90,4.0,4.0,45,0.00,,,0.00,meteohub,2013-01-03 04:27:00,
2013-01-02 23:32:00,12.4,-4.9,30.07,NE,45,1.0,4.0,45,0.00,,,0.00,meteohub,2013-01-03 04:32:00,
2013-01-02 23:37:00,12.2,-5.1,30.07,East,90,0.0,4.0,45,0.00,,,0.00,meteohub,2013-01-03 04:37:00,
2013-01-02 23:42:00,12.0,-4.7,30.07,East,90,2.0,5.0,46,0.00,,,0.00,meteohub,2013-01-03 04:42:00,
2013-01-02 23:47:00,11.8,-4.9,30.07,East,90,1.0,5.0,46,0.00,,,0.00,meteohub,2013-01-03 04:47:00,
2013-01-02 23:52:00,11.7,-5.1,30.07,West,270,1.0,5.0,46,0.00,,,0.00,meteohub,2013-01-03 04:52:00,
2013-01-02 23:57:00,11.5,-5.3,30.08,North,0,0.0,2.0,46,0.00,,,0.00,meteohub,2013-01-03 04:57:00,